• In France
  • List of Countries
  • For 7 days
  • Water Temperature
  • Satellite Maps
  • Weather Map
  • Weather Widgets
  • user-avatar
    Login

    Hourly Weather Dobrich

    Today, 16 July, Monday

    Time Temperature Precipitation Wind Pressure Humidity
    00:00 +21°C° 0 mm 3 mps 735 mmHg 61%
    01:00 +20°C° 0 mm 3 mps 735 mmHg 64%
    02:00 +20°C° 0 mm 3 mps 735 mmHg 65%
    03:00 +19°C° 0.1 mm 3 mps 735 mmHg 68%
    04:00 +18°C° 0.1 mm 3 mps 735 mmHg 71%
    05:00 +18°C° 0.1 mm 3 mps 735 mmHg 74%
    06:00 +19°C° 0 mm 4 mps 735 mmHg 70%
    07:00 +21°C° 0 mm 4 mps 735 mmHg 66%
    08:00 +23°C° 0 mm 4 mps 735 mmHg 60%
    09:00 +25°C° 0 mm 4 mps 735 mmHg 55%
    10:00 +26°C° 0 mm 4 mps 735 mmHg 49%
    11:00 +28°C° 0 mm 5 mps 735 mmHg 44%
    12:00 +28°C° 0 mm 4 mps 735 mmHg 44%
    13:00 +29°C° 0 mm 4 mps 735 mmHg 43%
    14:00 +29°C° 0 mm 4 mps 735 mmHg 41%
    15:00 +29°C° 0 mm 3 mps 735 mmHg 43%
    16:00 +29°C° 0 mm 3 mps 735 mmHg 45%
    17:00 +29°C° 0 mm 3 mps 734 mmHg 46%
    18:00 +28°C° 0 mm 3 mps 734 mmHg 51%
    19:00 +26°C° 0 mm 3 mps 734 mmHg 55%
    20:00 +24°C° 0 mm 3 mps 734 mmHg 60%
    21:00 +24°C° 0 mm 3 mps 734 mmHg 61%
    22:00 +22°C° 0 mm 3 mps 734 mmHg 62%
    23:00 +21°C° 0 mm 3 mps 734 mmHg 64%

    Tomorrow, 17 July, Tuesday

    Time Temperature Precipitation Wind Pressure Humidity
    00:00 +21°C° 0 mm 3 mps 734 mmHg 64%
    01:00 +20°C° 0 mm 3 mps 734 mmHg 63%
    02:00 +20°C° 0 mm 3 mps 733 mmHg 63%
    03:00 +19°C° 0 mm 3 mps 733 mmHg 64%
    04:00 +19°C° 0 mm 3 mps 733 mmHg 65%
    05:00 +19°C° 0 mm 3 mps 733 mmHg 65%
    06:00 +20°C° 0 mm 3 mps 733 mmHg 63%
    07:00 +22°C° 0 mm 4 mps 733 mmHg 60%
    08:00 +25°C° 0 mm 4 mps 733 mmHg 57%
    09:00 +26°C° 0 mm 4 mps 733 mmHg 53%
    10:00 +28°C° 0 mm 4 mps 733 mmHg 48%
    11:00 +29°C° 0 mm 4 mps 733 mmHg 44%
    12:00 +30°C° 0 mm 4 mps 733 mmHg 41%
    13:00 +32°C° 0 mm 4 mps 732 mmHg 39%
    14:00 +33°C° 0 mm 4 mps 732 mmHg 36%
    15:00 +32°C° 0 mm 4 mps 732 mmHg 37%
    16:00 +32°C° 0 mm 4 mps 731 mmHg 38%
    17:00 +31°C° 0 mm 3 mps 731 mmHg 39%
    18:00 +29°C° 0 mm 3 mps 731 mmHg 45%
    19:00 +27°C° 0 mm 2 mps 731 mmHg 50%
    20:00 +25°C° 0 mm 2 mps 731 mmHg 55%
    21:00 +25°C° 0 mm 2 mps 731 mmHg 56%
    22:00 +24°C° 0 mm 2 mps 731 mmHg 57%
    23:00 +23°C° 0 mm 2 mps 731 mmHg 59%

    Day after tomorrow, 18 July, Wednesday

    Time Temperature Precipitation Wind Pressure Humidity
    00:00 +23°C° 0.1 mm 2 mps 731 mmHg 61%
    01:00 +21°C° 0.1 mm 2 mps 731 mmHg 63%
    02:00 +21°C° 0.1 mm 3 mps 731 mmHg 65%
    03:00 +20°C° 0.1 mm 3 mps 731 mmHg 69%
    04:00 +20°C° 0.1 mm 4 mps 731 mmHg 74%
    05:00 +20°C° 0.1 mm 5 mps 731 mmHg 78%
    06:00 +20°C° 0.2 mm 5 mps 731 mmHg 77%
    07:00 +21°C° 0.2 mm 5 mps 731 mmHg 77%
    08:00 +22°C° 0.2 mm 5 mps 731 mmHg 76%
    09:00 +23°C° 0.1 mm 5 mps 732 mmHg 69%
    10:00 +26°C° 0.1 mm 4 mps 732 mmHg 63%
    11:00 +27°C° 0.1 mm 4 mps 732 mmHg 56%
    12:00 +28°C° 1 mm 4 mps 732 mmHg 52%
    13:00 +29°C° 1 mm 4 mps 732 mmHg 49%
    14:00 +30°C° 1 mm 4 mps 731 mmHg 46%
    15:00 +30°C° 0 mm 4 mps 731 mmHg 47%
    16:00 +30°C° 0 mm 4 mps 731 mmHg 48%
    17:00 +29°C° 0 mm 4 mps 731 mmHg 49%
    18:00 +28°C° 0 mm 4 mps 731 mmHg 53%
    19:00 +26°C° 0 mm 4 mps 731 mmHg 57%
    20:00 +25°C° 0 mm 4 mps 731 mmHg 61%
    21:00 +23°C° 0 mm 5 mps 731 mmHg 62%
    22:00 +22°C° 0 mm 5 mps 731 mmHg 63%
    23:00 +22°C° 0 mm 6 mps 731 mmHg 63%

    19 July, Thursday

    Time Temperature Precipitation Wind Pressure Humidity
    00:00 +21°C° 0 mm 6 mps 731 mmHg 65%
    01:00 +20°C° 0 mm 6 mps 731 mmHg 67%
    02:00 +20°C° 0 mm 6 mps 730 mmHg 69%
    03:00 +19°C° 0 mm 6 mps 730 mmHg 70%
    04:00 +19°C° 0 mm 5 mps 730 mmHg 72%
    05:00 +19°C° 0 mm 5 mps 730 mmHg 74%
    06:00 +20°C° 0 mm 6 mps 731 mmHg 71%
    07:00 +21°C° 0 mm 6 mps 731 mmHg 68%
    08:00 +22°C° 0 mm 6 mps 731 mmHg 65%
    09:00 +25°C° 0.1 mm 5 mps 731 mmHg 62%
    10:00 +26°C° 0.1 mm 5 mps 731 mmHg 58%
    11:00 +27°C° 0.1 mm 5 mps 731 mmHg 54%
    12:00 +27°C° 0.7 mm 4 mps 731 mmHg 55%
    13:00 +28°C° 0.7 mm 4 mps 731 mmHg 55%
    14:00 +28°C° 0.7 mm 4 mps 731 mmHg 55%
    15:00 +27°C° 0.8 mm 4 mps 731 mmHg 59%
    16:00 +26°C° 0.8 mm 4 mps 731 mmHg 63%
    17:00 +26°C° 0.8 mm 4 mps 731 mmHg 67%
    18:00 +25°C° 0.4 mm 4 mps 732 mmHg 71%
    19:00 +22°C° 0.4 mm 4 mps 732 mmHg 75%
    20:00 +21°C° 0.4 mm 4 mps 732 mmHg 80%
    21:00 +21°C° 0.1 mm 5 mps 732 mmHg 81%
    22:00 +20°C° 0.1 mm 5 mps 732 mmHg 83%
    23:00 +20°C° 0.1 mm 5 mps 733 mmHg 85%

    20 July, Friday

    Time Temperature Precipitation Wind Pressure Humidity
    00:00 +20°C° 0.1 mm 5 mps 733 mmHg 86%
    01:00 +19°C° 0.1 mm 5 mps 733 mmHg 88%
    02:00 +19°C° 0.1 mm 5 mps 733 mmHg 89%
    03:00 +19°C° 0 mm 5 mps 733 mmHg 90%
    04:00 +19°C° 0 mm 5 mps 733 mmHg 91%
    05:00 +18°C° 0 mm 4 mps 733 mmHg 91%
    06:00 +20°C° 0 mm 5 mps 733 mmHg 86%
    07:00 +21°C° 0 mm 5 mps 734 mmHg 81%
    08:00 +23°C° 0 mm 5 mps 734 mmHg 76%
    09:00 +25°C° 0 mm 4 mps 734 mmHg 69%
    10:00 +27°C° 0 mm 4 mps 734 mmHg 63%
    11:00 +29°C° 0 mm 4 mps 734 mmHg 56%
    12:00 +29°C° 0.4 mm 4 mps 734 mmHg 55%
    13:00 +30°C° 0.4 mm 3 mps 734 mmHg 54%
    14:00 +30°C° 0.4 mm 3 mps 734 mmHg 53%
    15:00 +30°C° 1.1 mm 3 mps 734 mmHg 55%
    16:00 +30°C° 1.1 mm 3 mps 734 mmHg 56%
    17:00 +29°C° 1.1 mm 2 mps 734 mmHg 58%
    18:00 +28°C° 0.7 mm 2 mps 734 mmHg 62%
    19:00 +27°C° 0.7 mm 2 mps 734 mmHg 66%
    20:00 +25°C° 0.7 mm 2 mps 734 mmHg 71%
    21:00 +25°C° 0.7 mm 2 mps 734 mmHg 75%
    22:00 +24°C° 0.7 mm 2 mps 735 mmHg 79%
    23:00 +22°C° 0.7 mm 3 mps 735 mmHg 83%

    21 July, Saturday

    Time Temperature Precipitation Wind Pressure Humidity
    00:00 +22°C° 0.3 mm 3 mps 735 mmHg 84%
    01:00 +21°C° 0.3 mm 3 mps 735 mmHg 86%
    02:00 +21°C° 0.3 mm 3 mps 735 mmHg 87%
    03:00 +20°C° 0 mm 3 mps 735 mmHg 88%
    04:00 +20°C° 0 mm 3 mps 735 mmHg 90%
    05:00 +20°C° 0 mm 3 mps 735 mmHg 91%
    06:00 +21°C° 0 mm 3 mps 735 mmHg 85%
    07:00 +24°C° 0 mm 3 mps 735 mmHg 80%
    08:00 +25°C° 0 mm 3 mps 736 mmHg 74%
    09:00 +26°C° 0.4 mm 3 mps 736 mmHg 69%
    10:00 +27°C° 0.4 mm 2 mps 736 mmHg 64%
    11:00 +29°C° 0.4 mm 2 mps 736 mmHg 58%
    12:00 +29°C° 1 mm 2 mps 735 mmHg 56%
    13:00 +30°C° 1 mm 2 mps 735 mmHg 54%
    14:00 +30°C° 1 mm 2 mps 735 mmHg 52%
    15:00 +30°C° 0.1 mm 2 mps 735 mmHg 53%
    16:00 +30°C° 0.1 mm 2 mps 734 mmHg 53%
    17:00 +30°C° 0.1 mm 2 mps 734 mmHg 54%
    18:00 +28°C° 0 mm 2 mps 734 mmHg 60%
    19:00 +27°C° 0 mm 2 mps 734 mmHg 67%
    20:00 +25°C° 0 mm 2 mps 734 mmHg 74%
    21:00 +24°C° 0 mm 2 mps 734 mmHg 78%
    22:00 +24°C° 0 mm 2 mps 733 mmHg 81%
    23:00 +23°C° 0 mm 2 mps 733 mmHg 84%
    Show more